• In Hungary
  • List of Countries
  • For 7 days
  • Water Temperature
  • Satellite Maps
  • Weather Map
  • News
  • Weather Widgets
  • user-avatar
    Login

    Hourly Weather Agrafenino

    Today, 21 September, Friday

    Time Temperature Precipitation Wind Pressure Humidity
    00:00 +14°C° 0 mm 2 mps 746 mmHg 92%
    01:00 +14°C° 0 mm 2 mps 746 mmHg 92%
    02:00 +14°C° 0 mm 2 mps 747 mmHg 93%
    03:00 +14°C° 0 mm 2 mps 747 mmHg 93%
    04:00 +14°C° 0 mm 2 mps 747 mmHg 94%
    05:00 +14°C° 0 mm 2 mps 747 mmHg 95%
    06:00 +15°C° 0 mm 2 mps 747 mmHg 90%
    07:00 +16°C° 0 mm 2 mps 747 mmHg 85%
    08:00 +18°C° 0 mm 3 mps 747 mmHg 80%
    09:00 +19°C° 0 mm 3 mps 748 mmHg 75%
    10:00 +21°C° 0 mm 3 mps 748 mmHg 70%
    11:00 +22°C° 0 mm 3 mps 748 mmHg 65%
    12:00 +24°C° 0 mm 3 mps 748 mmHg 63%
    13:00 +25°C° 0 mm 3 mps 747 mmHg 62%
    14:00 +25°C° 0 mm 3 mps 747 mmHg 60%
    15:00 +24°C° 0.3 mm 3 mps 747 mmHg 67%
    16:00 +22°C° 0.3 mm 3 mps 747 mmHg 74%
    17:00 +21°C° 0.3 mm 2 mps 747 mmHg 80%
    18:00 +20°C° 0 mm 2 mps 747 mmHg 84%
    19:00 +19°C° 0 mm 2 mps 747 mmHg 87%
    20:00 +18°C° 0 mm 2 mps 747 mmHg 90%
    21:00 +17°C° 0 mm 2 mps 747 mmHg 91%
    22:00 +17°C° 0 mm 2 mps 747 mmHg 91%
    23:00 +17°C° 0 mm 2 mps 746 mmHg 91%

    Tomorrow, 22 September, Saturday

    Time Temperature Precipitation Wind Pressure Humidity
    00:00 +16°C° 0 mm 3 mps 746 mmHg 92%
    01:00 +16°C° 0 mm 3 mps 746 mmHg 94%
    02:00 +16°C° 0 mm 3 mps 746 mmHg 95%
    03:00 +16°C° 0 mm 3 mps 745 mmHg 95%
    04:00 +16°C° 0 mm 3 mps 745 mmHg 95%
    05:00 +16°C° 0 mm 3 mps 745 mmHg 95%
    06:00 +17°C° 0 mm 4 mps 744 mmHg 90%
    07:00 +18°C° 0 mm 4 mps 744 mmHg 84%
    08:00 +19°C° 0 mm 5 mps 744 mmHg 79%
    09:00 +20°C° 0 mm 5 mps 743 mmHg 71%
    10:00 +22°C° 0 mm 6 mps 743 mmHg 63%
    11:00 +23°C° 0 mm 6 mps 742 mmHg 55%
    12:00 +23°C° 0 mm 6 mps 742 mmHg 53%
    13:00 +24°C° 0 mm 6 mps 742 mmHg 51%
    14:00 +24°C° 0 mm 6 mps 741 mmHg 49%
    15:00 +23°C° 0.1 mm 5 mps 741 mmHg 56%
    16:00 +21°C° 0.1 mm 4 mps 741 mmHg 63%
    17:00 +20°C° 0.1 mm 3 mps 741 mmHg 71%
    18:00 +18°C° 0.2 mm 3 mps 741 mmHg 76%
    19:00 +16°C° 0.2 mm 3 mps 741 mmHg 82%
    20:00 +13°C° 0.2 mm 3 mps 741 mmHg 88%
    21:00 +12°C° 0.3 mm 3 mps 741 mmHg 88%
    22:00 +11°C° 0.3 mm 3 mps 741 mmHg 88%
    23:00 +12°C° 0.3 mm 2 mps 741 mmHg 89%

    Day after tomorrow, 23 September, Sunday

    Time Temperature Precipitation Wind Pressure Humidity
    00:00 +10°C° 0.2 mm 2 mps 741 mmHg 89%
    01:00 +10°C° 0.2 mm 2 mps 741 mmHg 90%
    02:00 +10°C° 0.2 mm 2 mps 741 mmHg 91%
    03:00 +10°C° 0.6 mm 2 mps 741 mmHg 92%
    04:00 +9°C° 0.6 mm 2 mps 741 mmHg 93%
    05:00 +9°C° 0.6 mm 2 mps 741 mmHg 94%
    06:00 +9°C° 0.9 mm 2 mps 741 mmHg 94%
    07:00 +9°C° 0.9 mm 2 mps 741 mmHg 94%
    08:00 +9°C° 0.9 mm 2 mps 740 mmHg 94%
    09:00 +10°C° 0.7 mm 2 mps 740 mmHg 93%
    10:00 +10°C° 0.7 mm 2 mps 740 mmHg 92%
    11:00 +10°C° 0.7 mm 2 mps 740 mmHg 91%
    12:00 +12°C° 0.3 mm 2 mps 740 mmHg 88%
    13:00 +12°C° 0.3 mm 2 mps 740 mmHg 86%
    14:00 +12°C° 0.3 mm 2 mps 740 mmHg 84%
    15:00 +12°C° 0.1 mm 2 mps 740 mmHg 86%
    16:00 +12°C° 0.1 mm 1 mps 740 mmHg 88%
    17:00 +11°C° 0.1 mm 1 mps 739 mmHg 90%
    18:00 +11°C° 0 mm 1 mps 739 mmHg 91%
    19:00 +9°C° 0 mm 2 mps 740 mmHg 93%
    20:00 +8°C° 0 mm 2 mps 740 mmHg 94%
    21:00 +8°C° 0 mm 2 mps 739 mmHg 95%
    22:00 +7°C° 0 mm 2 mps 739 mmHg 95%
    23:00 +7°C° 0 mm 2 mps 739 mmHg 95%

    24 September, Monday

    Time Temperature Precipitation Wind Pressure Humidity
    00:00 +7°C° 0 mm 2 mps 739 mmHg 96%
    01:00 +7°C° 0 mm 2 mps 739 mmHg 96%
    02:00 +6°C° 0 mm 2 mps 739 mmHg 97%
    03:00 +7°C° 0 mm 3 mps 739 mmHg 95%
    04:00 +7°C° 0 mm 3 mps 739 mmHg 93%
    05:00 +7°C° 0 mm 3 mps 739 mmHg 92%
    06:00 +8°C° 0 mm 3 mps 739 mmHg 90%
    07:00 +8°C° 0 mm 3 mps 739 mmHg 89%
    08:00 +8°C° 0 mm 3 mps 740 mmHg 87%
    09:00 +8°C° 0 mm 3 mps 740 mmHg 85%
    10:00 +9°C° 0 mm 3 mps 740 mmHg 83%
    11:00 +9°C° 0 mm 3 mps 741 mmHg 81%
    12:00 +10°C° 0 mm 3 mps 741 mmHg 78%
    13:00 +10°C° 0 mm 2 mps 740 mmHg 75%
    14:00 +12°C° 0 mm 2 mps 740 mmHg 72%
    15:00 +10°C° 0 mm 2 mps 740 mmHg 75%
    16:00 +10°C° 0 mm 2 mps 740 mmHg 78%
    17:00 +10°C° 0 mm 1 mps 740 mmHg 81%
    18:00 +9°C° 0.3 mm 2 mps 740 mmHg 84%
    19:00 +8°C° 0.3 mm 2 mps 739 mmHg 87%
    20:00 +8°C° 0.3 mm 2 mps 739 mmHg 90%
    21:00 +8°C° 0.7 mm 3 mps 738 mmHg 91%
    22:00 +8°C° 0.7 mm 3 mps 738 mmHg 93%
    23:00 +8°C° 0.7 mm 3 mps 737 mmHg 94%

    25 September, Tuesday

    Time Temperature Precipitation Wind Pressure Humidity
    00:00 +7°C° 1.1 mm 4 mps 737 mmHg 94%
    01:00 +7°C° 1.1 mm 4 mps 736 mmHg 93%
    02:00 +7°C° 1.1 mm 5 mps 735 mmHg 93%
    03:00 +7°C° 1.4 mm 5 mps 734 mmHg 93%
    04:00 +7°C° 1.4 mm 5 mps 733 mmHg 92%
    05:00 +7°C° 1.4 mm 6 mps 732 mmHg 92%
    06:00 +7°C° 2 mm 5 mps 732 mmHg 92%
    07:00 +7°C° 2 mm 5 mps 731 mmHg 93%
    08:00 +7°C° 2 mm 5 mps 731 mmHg 93%
    09:00 +7°C° 1.2 mm 4 mps 730 mmHg 93%
    10:00 +7°C° 1.2 mm 4 mps 730 mmHg 93%
    11:00 +8°C° 1.2 mm 4 mps 730 mmHg 94%
    12:00 +9°C° 0.7 mm 3 mps 730 mmHg 93%
    13:00 +9°C° 0.7 mm 3 mps 730 mmHg 93%
    14:00 +9°C° 0.7 mm 3 mps 730 mmHg 93%
    15:00 +9°C° 0.7 mm 3 mps 730 mmHg 94%
    16:00 +9°C° 0.7 mm 3 mps 730 mmHg 94%
    17:00 +8°C° 0.7 mm 2 mps 730 mmHg 95%
    18:00 +8°C° 0.7 mm 2 mps 730 mmHg 95%
    19:00 +8°C° 0.7 mm 2 mps 730 mmHg 96%
    20:00 +8°C° 0.7 mm 2 mps 730 mmHg 97%
    21:00 +8°C° 0.6 mm 2 mps 730 mmHg 96%
    22:00 +8°C° 0.6 mm 3 mps 731 mmHg 96%
    23:00 +8°C° 0.6 mm 3 mps 731 mmHg 96%

    26 September, Wednesday

    Time Temperature Precipitation Wind Pressure Humidity
    00:00 +7°C° 0.9 mm 3 mps 731 mmHg 96%
    01:00 +6°C° 0.9 mm 4 mps 731 mmHg 95%
    02:00 +6°C° 0.9 mm 4 mps 732 mmHg 94%
    03:00 +6°C° 1 mm 4 mps 732 mmHg 94%
    04:00 +6°C° 1 mm 4 mps 732 mmHg 93%
    05:00 +6°C° 1 mm 5 mps 733 mmHg 93%
    06:00 +6°C° 0.5 mm 5 mps 733 mmHg 92%
    07:00 +6°C° 0.5 mm 5 mps 734 mmHg 92%
    08:00 +6°C° 0.5 mm 5 mps 734 mmHg 91%
    09:00 +6°C° 0.3 mm 5 mps 735 mmHg 91%
    10:00 +6°C° 0.3 mm 5 mps 736 mmHg 90%
    11:00 +6°C° 0.3 mm 5 mps 737 mmHg 90%
    12:00 +6°C° 0.3 mm 5 mps 738 mmHg 90%
    13:00 +7°C° 0.3 mm 5 mps 738 mmHg 89%
    14:00 +7°C° 0.3 mm 5 mps 739 mmHg 89%
    15:00 +7°C° 0.2 mm 5 mps 740 mmHg 89%
    16:00 +6°C° 0.2 mm 5 mps 741 mmHg 89%
    17:00 +6°C° 0.2 mm 5 mps 742 mmHg 89%
    18:00 +6°C° 0.1 mm 5 mps 743 mmHg 89%
    19:00 +6°C° 0.1 mm 5 mps 744 mmHg 89%
    20:00 +5°C° 0.1 mm 5 mps 745 mmHg 88%
    21:00 +5°C° 0 mm 4 mps 745 mmHg 90%
    22:00 +4°C° 0 mm 4 mps 746 mmHg 91%
    23:00 +3°C° 0 mm 3 mps 746 mmHg 92%
    Show more